This demonstration page uses our WeatherBlox Daily Observations layout. Learn more.

Left ArrowRight Arrow

40.92501, -98.34201

Hourly Observations for May 7, 2020

Temp ( °F °C ) Dew Point ( °F °C ) Humidity (%) Winds ( mph kmh ) Pressure ( in mb ) Visibility ( mi km ) Precip ( " mm )
12:53 am 00:53 Clear 47 8.3 36 2.2 66 66 SE 6 9 30.23 1024 10 16 0.00 0.00
1:53 am 01:53 Clear 45 7.2 35 1.7 68 68 SSE 6 9 30.22 1023 10 16 0.00 0.00
2:53 am 02:53 Clear 45 7.2 35 1.7 68 68 SE 6 9 30.19 1022 10 16 0.00 0.00
3:53 am 03:53 Clear 46 7.8 36 2.2 68 68 SSE 8 13 30.16 1022 10 16 0.00 0.00
4:53 am 04:53 Clear 46 7.8 36 2.2 68 68 S 8 13 30.16 1021 10 16 0.00 0.00
5:53 am 05:53 Mostly Cloudy 48 8.9 36 2.2 63 63 SSE 10 17 30.11 1020 10 16 0.00 0.00
6:53 am 06:53 Partly Cloudy 49 9.4 36 2.2 61 61 SSE 9 15 30.10 1019 10 16 0.00 0.00
7:53 am 07:53 Cloudy with Light Rain 49 9.4 39 3.9 69 69 SSW 12 19 30.13 1020 10 16 0.00 0.00
8:53 am 08:53 Cloudy 50 10 39 3.9 66 66 SSE 10 17 30.11 1020 10 16 0.00 0.00
9:53 am 09:53 Cloudy 51 10.6 40 4.4 66 66 SE 13 20 30.08 1019 10 16 0.00 0.00
10:53 am 10:53 Cloudy 53 11.7 40 4.4 61 61 SSE 13 20 30.07 1018 10 16 0.00 0.00
11:53 am 11:53 Cloudy 54 12.2 41 5 62 62 SSE 9 15 30.06 1018 10 16 0.00 0.00
12:53 pm 12:53 Cloudy 57 13.9 41 5 55 55 SE 15 24 30.02 1017 10 16 0.00 0.00
1:53 pm 13:53 Cloudy 58 14.4 40 4.4 51 51 SE 17 28 29.99 1016 10 16 0.00 0.00
2:53 pm 14:53 Cloudy 58 14.4 41 5 53 53 ESE 13 20 29.97 1015 10 16 0.00 0.00
3:53 pm 15:53 Cloudy 58 14.4 41 5 53 53 SE 17 28 29.96 1015 10 16 0.00 0.00
4:53 pm 16:53 Mostly Cloudy 60 15.6 41 5 50 50 ESE 17 28 29.94 1014 10 16 0.00 0.00
5:53 pm 17:53 Mostly Cloudy 59 15 40 4.4 49 49 ESE 16 26 29.94 1014 10 16 0.00 0.00
6:53 pm 18:53 Cloudy 56 13.3 40 4.4 55 55 ESE 15 24 29.94 1014 10 16 0.00 0.00
7:53 pm 19:53 Partly Cloudy 54 12.2 41 5 62 62 ESE 15 24 29.93 1014 10 16 0.00 0.00
8:39 pm 20:39 Mostly Cloudy 53 11.7 41 5 64 64 SE 14 22 29.95 1014 10 16 0.00 0.00
8:53 pm 20:53 Cloudy 53 11.7 41 5 64 64 ESE 13 20 29.95 1014 10 16 0.00 0.00
9:17 pm 21:17 Cloudy with Nearby Thunderstorms 53 11.7 41 5 64 64 ESE 10 17 29.96 1014 10 16 0.00 0.00
9:28 pm 21:28 Cloudy with Thunderstorms 52 11.1 43 6.1 72 72 SE 9 15 29.98 1015 7 11 0.00 0.00
9:38 pm 21:38 Cloudy with Strong Thunderstorms 50 10 44 6.7 80 80 NW 21 33 30.04 1017 2 3 0.02 0.51
9:49 pm 21:49 Cloudy with Thunderstorms 50 10 45 7 82 82 N 12 19 30.04 1017 3 5 0.14 3.56
9:53 pm 21:53 Cloudy with Thunderstorms 49 9.4 45 7.2 86 86 N 10 17 30.06 1018 5 8 0.14 3.56
10:01 pm 22:01 Cloudy with Light Rain 49 9.4 45 7.2 86 86 NNE 15 24 30.03 1017 9 14 0.00 0.00
10:15 pm 22:15 Partly Cloudy 49 9.4 44 6.7 83 83 ENE 14 22 30.01 1016 10 16 0.00 0.00
10:53 pm 22:53 Mostly Clear 47 8.3 44 6.7 90 90 NE 15 24 30.06 1018 8 13 0.00 0.00
11:00 pm 23:00 Mostly Cloudy 47 8.3 44 6.7 90 90 NE 16 26 30.06 1018 7 11 0.00 0.00
11:09 pm 23:09 Mostly Cloudy with Mist and Fog 47 8.3 44 6.7 90 90 NE 18 30 30.06 1018 4 6 0.00 0.00
11:53 pm 23:53 Cloudy 47 8.3 43 6.1 86 86 NE 25 41 30.10 1019 8 13 0.00 0.00

Powered by AerisWeather